Regional Weather Roundup
Issued by NWS

Home | Current Version | Previous Version | Text Only | Print | Product List | Glossary Off
Versions: 1 2 3 4 5 6 7 8 9 10 11 12 13 14 15 16 17 18 19 20 21 22 23 24 25 26 27

000
ASUS45 KPSR 202310
RWRAZ

ARIZONA HOURLY REGIONAL WEATHER ROUNDUP
NATIONAL WEATHER SERVICE PHOENIX AZ
400 PM MST FRI OCT 20 2017

NOTE: FAIR INDICATES FEW OR NO CLOUDS BELOW 12,000 FEET WITH NO
SIGNIFICANT WEATHER AND/OR OBSTRUCTIONS TO VISIBILITY.

AZZ001>003-036-210000-
NORTHWEST ARIZONA

CITY           SKY/WX    TMP DP  RH WIND       PRES   REMARKS
BULLHEAD CITY  MOSUNNY   86  32  14 SW17      29.64F
KINGMAN        SUNNY     74  40  29 SW24G32   29.78R
$$

AZZ004>008-015-016-018-210000-
NORTH CENTRAL ARIZONA

CITY           SKY/WX    TMP DP  RH WIND       PRES   REMARKS
GRAND CANYON   SUNNY     66  23  19 SW22G40   29.85R
WILLIAMS       MOSUNNY   64  27  24 SW31G41   29.86F
PRESCOTT       MOSUNNY   69  38  32 S17G23    29.86R
FLAGSTAFF      MOSUNNY   60  29  30 SW29G45   29.90S
PAYSON         SUNNY     70  32  24 SW16      29.91F
PAGE           MOSUNNY   77  22  13 W14G33    29.61S
$$

AZZ009>014-017-210000-
NORTHEAST ARIZONA

CITY           SKY/WX    TMP DP  RH WIND       PRES   REMARKS
WINSLOW        MOSUNNY   78  31  17 SW17G29   29.78F
SAINT JOHNS    SUNNY     73  31  21 SW25G35   29.86F
WINDOW ROCK    SUNNY     69  28  21 SW20G40   29.86F
SHOW LOW       SUNNY     68  30  24 SW29      29.93F
$$

AZZ540-542>544-546-548-210000-
GREATER PHOENIX AREA

CITY           SKY/WX    TMP DP  RH WIND       PRES   REMARKS
PHOENIX        MOSUNNY   86  46  24 SW18G28   29.71S
BUCKEYE        SUNNY     84  82  94 SW14G23   29.73S HX 101
GLENDALE       MOSUNNY   84  46  26 S16G24    29.74R
LUKE AFB       SUNNY     85  47  26 SW17      29.71R
DEER VALLEY    SUNNY     83  47  28 SW17G24   29.73S
SCOTTSDALE     SUNNY     85  45  24 W12       29.74S
MESA-FALCON    MOSUNNY   86  46  25 SW17G25   29.73F
MESA-GATEWAY   MOSUNNY   84  46  26 W13       29.73F
CHANDLER       MOSUNNY   86  45  23 SW15      29.72
$$

AZZ539-553-210000-
SOUTHWEST MARICOPA COUNTY AND PINAL COUNTY

CITY           SKY/WX    TMP DP  RH WIND       PRES   REMARKS
CASA GRANDE    NOT AVBL
GILA BEND      MOSUNNY   88  43  20 W9        29.71F
$$

AZZ503-504-507>509-210000-
SOUTHEAST ARIZONA

CITY           SKY/WX    TMP DP  RH WIND       PRES   REMARKS
TUCSON         SUNNY     88  37  16 W13G22    29.82F
DAVIS-MONTHAN  SUNNY     88  36  16 SW9G22    29.80F
RYAN FIELD     SUNNY     88  37  16 MISG      29.81F
NOGALES        SUNNY     83  38  20 SW14G24   29.92R
SIERRA VISTA   SUNNY     80  33  18 W16G24    29.96R
DOUGLAS        SUNNY     84  32  15 SW21G29   29.90S
SAFFORD        SUNNY     87  33  14 W14G20    29.78F
$$

AZZ532-210000-
SOUTHWEST ARIZONA

CITY           SKY/WX    TMP DP  RH WIND       PRES   REMARKS
YUMA           MOSUNNY   82  46  28 W22G31    29.74S BLWGDUST
$$

CAZ041-043-047-048-061-525>527-560>570-210000-
SOUTHERN CALIFORNIA

CITY           SKY/WX    TMP DP  RH WIND       PRES   REMARKS
DOWNTOWN L.A.  SUNNY     71  57  61 CALM      29.88S
L.A. AIRPORT   MOSUNNY   69  59  70 W16       29.89S
SAN DIEGO      PTSUNNY   71  58  63 W15       29.96F
BURBANK        PTSUNNY   71  52  50 S8        29.87S
ONTARIO        PTSUNNY   69  54  58 W14       29.89S
RIVERSIDE      MOSUNNY   73  53  49 W10       29.88F
PALM SPRINGS   SUNNY     83  45  26 NW16G38   29.72S
EL CENTRO NAS  PTSUNNY   80  47  31 W31G43    29.78S
IMPERIAL       MOSUNNY   79  48  33 W31G48    29.74F
BLYTHE         MOSUNNY   85  49  28 SW18G29   29.69S
NEEDLES        SUNNY     87  41  19 SW16G24   29.67S
$$

NVZ020-UTZ003-210000-
SOUTHERN NEVADA-UTAH

CITY           SKY/WX    TMP DP  RH WIND       PRES   REMARKS
LAS VEGAS      MOSUNNY   79  38  22 W16G22    29.69R
SALT LAKE CITY PTSUNNY   48  36  63 SE5       29.88S
$$

NMZ009-TXZ055-210000-
NEW MEXICO-WEST TEXAS

CITY           SKY/WX    TMP DP  RH WIND       PRES   REMARKS
ALBUQUERQUE    CLOUDY    73  42  32 S16G25    29.85F
EL PASO        MOSUNNY   85  35  16 W17       29.84F
$$


........................KEY........................
SKY/WX - SKY CONDITION/WEATHER
TMP    - TEMPERATURE IN FAHRENHEIT
DP     - DEW POINT IN FAHRENHEIT
RH     - RELATIVE HUMIDITY IN PERCENT
WIND   - DIRECTION AND SPEED IN MILES PER HOUR (MPH)
VRB    - VARIABLE WIND DIRECTION
PRES   - MEAN SEA LEVEL PRESSURE IN INCHES OF MERCURY
         F - FALLING PRESSURE   R - RISING PRESSURE
         S - STEADY PRESSURE
VSB    - VISIBILITY IN MILES
HX     - HEAT INDEX IN FAHRENHEIT
WCI    - WIND CHILL INDEX IN FAHRENHEIT
TC     - TEMPERATURE IN CELSIUS WHICH IS ALSO KNOWN AS
         TEMPERATURE IN CENTIGRADE
AFB    - AIR FORCE BASE
         LUKE AFB IS LUKE AIR FORCE BASE
         DAVIS-MONTHAN IS DAVIS-MONTHAN AIR FORCE BASE
NAS    - NAVAL AIR STATION
         EL CENTRO NAS IS EL CENTRO NAVAL AIR STATION
N/A    - NOT AVAILABLE





USA.gov is the U.S. government's official web portal to all federal, state and local government web resources and services.